{"data":{"norad_id":43172,"epoch":"2026-09-20T05:21:05.402016Z","epoch_age_seconds":76076,"freshness":"FRESH","line1":"1 43172U 18011D   26263.22297919  .00001658  00000+0  12262-3 0  9993","line2":"2 43172  34.9970 291.5744 0002078 219.4030 140.6527 15.03087339472398","mean_motion":15.03087339,"eccentricity":0.0002078,"inclination_deg":34.997,"raan_deg":291.5744,"arg_perigee_deg":219.403,"mean_anomaly_deg":140.6527,"bstar":0.00012262,"rev_number":47239,"period_min":95.802816152921,"perigee_km":555.94182772247,"apogee_km":558.82422984644,"semimajor_km":6935.5200287845,"source":"CELESTRAK","updated_at":"2026-09-20T09:00:14.305659Z"}}